Flag for France Weather past 2 weeks in Boulogne-Billancourt, France

Now
55 °F

Clear.


Feels Like: 53 °F
Forecast: 49 / 67 °F
Wind: 8 mph from West

Location: Paris-Orly

Current Time: Sep 4, 2015 at 4:35:43 AM

Latest Report: Sep 4, 2015 at 4:00 AM


Visibility: 10 mi

Pressure: 30.04 "Hg

Humidity: 72%

Dew point: 46 °F

Location of Boulogne-BillancourtLocation

Historic Weather in Boulogne-Billancourt — Graph

°F

Boulogne-Billancourt temperature yesterday

Maximum temperature yesterday: 70 °F (at 4:00 PM)
Minimum temperature yesterday: 46 °F (at 5:30 AM)
Average temperature yesterday: 58 °F

Past Weeks' High & Low Weather Summary

 TemperatureHumidityPressure
High91 °F (Aug 30, 5:00 PM)100% (Aug 21, 4:00 AM)30.21 "Hg (Aug 21, 4:00 AM)
Low46 °F (Sep 2, 6:30 AM)29% (Aug 22, 3:00 PM)29.45 "Hg (Aug 24, 1:30 PM)
Average67 °F71%29.96 "Hg
* Reported Aug 20 3:00 AM — Sep 4 3:30 AM, Boulogne-Billancourt, Weather by CustomWeather, © 2015

Note: Actual official high and low records may vary slightly from our data, if they occured in-between our weather recording intervals... More about our weather records

Advertising

Boulogne-Billancourt weather history for previous 24 hours

 ConditionsComfort  
Time TempWeatherWind HumidityBarometerVisibility
3:30 AM
Fri, Sep 4
55 °FClear.7 mph72%30.04 "Hg10 mi
3:00 AM55 °FClear.7 mph72%30.04 "Hg10 mi
2:30 AM55 °FClear.6 mph77%30.07 "Hg10 mi
2:00 AM55 °FClear.6 mph77%30.07 "Hg10 mi
1:30 AM55 °FClear.5 mph72%30.07 "Hg10 mi
1:00 AM57 °FPassing clouds.3 mph67%30.07 "HgN/A
12:30 AM57 °FClear.3 mph67%30.04 "Hg10 mi
12:00 AM59 °FClear.3 mph63%30.04 "Hg10 mi
11:30 PM
Thu, Sep 3
59 °FClear.3 mph63%30.04 "Hg10 mi
11:00 PM59 °FClear.6 mph63%30.04 "Hg10 mi
10:30 PM59 °FClear.5 mph63%30.04 "Hg10 mi
10:00 PM59 °FClear.7 mph63%30.04 "Hg10 mi
9:30 PM61 °FClear.7 mph59%30.04 "Hg10 mi
9:00 PM61 °FSunny.7 mph59%30.04 "Hg10 mi
8:30 PM61 °FPassing clouds.8 mph55%30.01 "HgN/A
8:00 PM63 °FSunny.12 mph52%30.01 "Hg10 mi
7:30 PM63 °FPassing clouds.9 mph52%30.01 "HgN/A
7:00 PM63 °FSunny.9 mph52%30.01 "Hg10 mi
6:00 PM64 °FPartly sunny.10 mph49%30.01 "HgN/A
5:30 PM64 °FPassing clouds.13 mph52%30.01 "HgN/A
5:00 PM66 °FSunny.10 mph46%29.98 "Hg10 mi
4:30 PM68 °FPassing clouds.10 mph43%29.98 "HgN/A
4:00 PM70 °FPassing clouds.9 mph38%29.98 "HgN/A
3:30 PM66 °FPassing clouds.8 mph43%30.01 "HgN/A
3:00 PM66 °FScattered clouds.9 mph49%30.01 "HgN/A
2:00 PM64 °FScattered clouds.7 mph52%30.01 "HgN/A
1:30 PM66 °FScattered clouds.7 mph52%30.01 "HgN/A
1:18 PM63 °FScattered clouds.8 mph56%30.01 "HgN/A
12:30 PM64 °FScattered clouds.8 mph52%30.01 "HgN/A
12:00 PM63 °FPartly sunny.7 mph59%30.01 "HgN/A
11:34 AM64 °FScattered clouds.9 mph60%30.01 "HgN/A
11:00 AM63 °FPassing clouds.7 mph59%30.04 "HgN/A
10:30 AM61 °FPassing clouds.7 mph68%30.04 "HgN/A
10:00 AM59 °FSunny.8 mph72%30.04 "Hg10 mi
9:30 AM57 °FSunny.7 mph77%30.04 "Hg10 mi
9:00 AM54 °FSunny.6 mph88%30.04 "Hg10 mi
8:30 AM52 °FSunny.8 mph88%30.04 "Hg10 mi
8:00 AM48 °FClear.7 mph100%30.04 "Hg10 mi
7:30 AM46 °FClear.2 mph93%30.04 "Hg10 mi
7:00 AM46 °FClear.3 mph93%30.04 "Hg10 mi
6:30 AM46 °FClear.1 mph93%30.04 "Hg10 mi
6:00 AM46 °FClear.6 mph93%30.04 "Hg10 mi
5:30 AM46 °FClear.5 mph93%30.04 "Hg10 mi
5:00 AM48 °FClear.3 mph87%30.01 "Hg10 mi
4:30 AM50 °FClear.5 mph88%30.04 "Hg10 mi
4:00 AM50 °FClear.3 mph88%30.04 "Hg10 mi
Weather by CustomWeather, © 2015

See weather overviewHow to use our weather pages